Time,TemperatureF,DewpointF,PressureIn,WindDirection,WindDirectionDegrees,WindSpeedMPH,WindSpeedGustMPH,Humidity,HourlyPrecipIn,Conditions,Clouds,dailyrainin,SolarRadiationWatts/m^2,SoftwareType,DateUTC
2013-07-12 00:01:00,64.0,29.0,29.69,SW,228,3.0,8.0,27,0.00,,,0.00,0.000000,,2013-07-12 06:01:00,
2013-07-12 00:11:00,64.0,29.0,29.69,SW,228,3.0,8.0,27,0.00,,,0.00,0.000000,,2013-07-12 06:11:00,
2013-07-12 00:22:00,63.0,28.0,29.70,SSW,200,5.0,12.0,26,0.00,,,0.00,0.000000,,2013-07-12 06:22:00,
2013-07-12 00:32:00,64.0,27.0,29.70,SW,225,4.0,7.0,25,0.00,,,0.00,0.000000,,2013-07-12 06:32:00,
2013-07-12 00:42:00,64.0,27.0,29.70,SW,225,4.0,7.0,25,0.00,,,0.00,0.000000,,2013-07-12 06:42:00,
2013-07-12 00:52:00,64.0,27.0,29.70,SW,221,1.0,10.0,25,0.00,,,0.00,0.000000,,2013-07-12 06:52:00,
2013-07-12 01:02:00,64.0,27.0,29.71,SSW,207,4.0,7.0,25,0.00,,,0.00,0.000000,,2013-07-12 07:02:00,
2013-07-12 01:11:00,64.0,27.0,29.71,SSW,207,4.0,7.0,25,0.00,,,0.00,0.000000,,2013-07-12 07:11:00,
2013-07-12 01:22:00,63.0,29.0,29.71,SW,224,1.0,6.0,27,0.00,,,0.00,0.000000,,2013-07-12 07:22:00,
2013-07-12 01:32:00,62.0,29.0,29.71,SW,225,0.0,7.0,28,0.00,,,0.00,0.000000,,2013-07-12 07:32:00,
2013-07-12 01:43:00,62.0,29.0,29.71,SW,225,0.0,7.0,28,0.00,,,0.00,0.000000,,2013-07-12 07:43:00,
2013-07-12 01:52:00,62.0,29.0,29.71,SSW,213,5.0,9.0,29,0.00,,,0.00,0.000000,,2013-07-12 07:52:00,
2013-07-12 02:01:00,61.0,29.0,29.72,SW,228,5.0,10.0,29,0.00,,,0.00,0.000000,,2013-07-12 08:01:00,
2013-07-12 02:21:00,60.0,29.0,29.72,SSW,192,5.0,9.0,31,0.00,,,0.00,0.000000,,2013-07-12 08:21:00,
2013-07-12 02:31:00,59.0,29.0,29.72,SSW,196,4.0,7.0,32,0.00,,,0.00,0.000000,,2013-07-12 08:31:00,
2013-07-12 02:42:00,59.0,29.0,29.72,SSW,196,4.0,7.0,32,0.00,,,0.00,0.000000,,2013-07-12 08:42:00,
2013-07-12 02:53:00,58.0,30.0,29.72,SSW,207,4.0,7.0,34,0.00,,,0.00,0.000000,,2013-07-12 08:53:00,
2013-07-12 03:02:00,57.0,30.0,29.72,SW,223,2.0,7.0,36,0.00,,,0.00,0.000000,,2013-07-12 09:02:00,
2013-07-12 03:12:00,57.0,30.0,29.72,SW,223,2.0,7.0,36,0.00,,,0.00,0.000000,,2013-07-12 09:12:00,
2013-07-12 03:22:00,56.0,31.0,29.72,SW,218,4.0,8.0,39,0.00,,,0.00,0.000000,,2013-07-12 09:22:00,
2013-07-12 03:32:00,55.0,31.0,29.73,SSW,203,2.0,7.0,39,0.00,,,0.00,0.000000,,2013-07-12 09:32:00,
2013-07-12 03:42:00,55.0,31.0,29.73,SSW,203,2.0,7.0,39,0.00,,,0.00,0.000000,,2013-07-12 09:42:00,
2013-07-12 03:52:00,55.0,31.0,29.73,SSW,207,4.0,8.0,39,0.00,,,0.00,0.000000,,2013-07-12 09:52:00,
2013-07-12 04:01:00,54.0,31.0,29.73,SSW,197,1.0,6.0,41,0.00,,,0.00,0.000000,,2013-07-12 10:01:00,
2013-07-12 04:11:00,54.0,31.0,29.73,SSW,197,1.0,6.0,41,0.00,,,0.00,0.000000,,2013-07-12 10:11:00,
2013-07-12 04:22:00,54.0,32.0,29.74,SSW,209,0.0,5.0,43,0.00,,,0.00,0.000000,,2013-07-12 10:22:00,
2013-07-12 04:33:00,53.0,32.0,29.74,WSW,241,0.0,3.0,44,0.00,,,0.00,0.000000,,2013-07-12 10:33:00,
2013-07-12 04:42:00,53.0,32.0,29.74,WSW,241,0.0,3.0,44,0.00,,,0.00,0.000000,,2013-07-12 10:42:00,
2013-07-12 04:52:00,52.0,33.0,29.75,WSW,249,0.0,0.0,49,0.00,,,0.00,0.000000,,2013-07-12 10:52:00,
2013-07-12 05:02:00,51.0,34.0,29.75,WSW,249,0.0,1.0,53,0.00,,,0.00,0.000000,,2013-07-12 11:02:00,
2013-07-12 05:11:00,51.0,34.0,29.75,WSW,249,0.0,1.0,53,0.00,,,0.00,0.000000,,2013-07-12 11:11:00,
2013-07-12 05:22:00,49.0,36.0,29.75,WSW,249,0.0,1.0,61,0.00,,,0.00,0.000000,,2013-07-12 11:22:00,
2013-07-12 05:32:00,47.0,36.0,29.75,WSW,249,0.0,0.0,66,0.00,,,0.00,0.000000,,2013-07-12 11:32:00,
2013-07-12 05:43:00,47.0,36.0,29.75,WSW,249,0.0,0.0,66,0.00,,,0.00,0.000000,,2013-07-12 11:43:00,
2013-07-12 05:53:00,47.0,37.0,29.76,WSW,249,0.0,1.0,68,0.00,,,0.00,0.000000,,2013-07-12 11:53:00,
2013-07-12 06:01:00,45.0,36.0,29.76,WSW,249,0.0,1.0,71,0.00,,,0.00,0.000000,,2013-07-12 12:01:00,
2013-07-12 06:11:00,45.0,36.0,29.76,WSW,249,0.0,1.0,71,0.00,,,0.00,0.000000,,2013-07-12 12:11:00,
2013-07-12 06:22:00,45.0,37.0,29.77,WSW,249,0.0,1.0,73,0.00,,,0.00,9.000000,,2013-07-12 12:22:00,
2013-07-12 06:32:00,44.0,37.0,29.77,WSW,249,0.0,0.0,75,0.00,,,0.00,21.000000,,2013-07-12 12:32:00,
2013-07-12 06:43:00,44.0,37.0,29.77,WSW,249,0.0,0.0,75,0.00,,,0.00,21.000000,,2013-07-12 12:43:00,
2013-07-12 06:52:00,44.0,37.0,29.77,WSW,249,0.0,1.0,77,0.00,,,0.00,54.000000,,2013-07-12 12:52:00,
2013-07-12 07:01:00,45.0,38.0,29.77,WSW,249,0.0,0.0,75,0.00,,,0.00,93.000000,,2013-07-12 13:01:00,
2013-07-12 07:11:00,45.0,38.0,29.77,WSW,249,0.0,0.0,75,0.00,,,0.00,93.000000,,2013-07-12 13:11:00,
2013-07-12 07:22:00,47.0,38.0,29.78,WSW,249,0.0,1.0,71,0.00,,,0.00,74.000000,,2013-07-12 13:22:00,
2013-07-12 07:32:00,47.0,38.0,29.78,WSW,249,0.0,1.0,71,0.00,,,0.00,74.000000,,2013-07-12 13:32:00,
2013-07-12 07:43:00,47.0,38.0,29.78,WSW,249,0.0,1.0,71,0.00,,,0.00,74.000000,,2013-07-12 13:43:00,
2013-07-12 07:53:00,51.0,41.0,29.78,WSW,249,0.0,1.0,68,0.00,,,0.00,211.000000,,2013-07-12 13:53:00,
2013-07-12 08:02:00,51.0,41.0,29.78,WSW,249,0.0,1.0,68,0.00,,,0.00,211.000000,,2013-07-12 14:02:00,
2013-07-12 08:11:00,52.0,42.0,29.78,WSW,249,0.0,1.0,68,0.00,,,0.00,257.000000,,2013-07-12 14:11:00,
2013-07-12 08:22:00,53.0,42.0,29.78,WSW,249,0.0,1.0,66,0.00,,,0.00,297.000000,,2013-07-12 14:22:00,
2013-07-12 08:32:00,55.0,43.0,29.78,WSW,249,0.0,1.0,64,0.00,,,0.00,362.000000,,2013-07-12 14:32:00,
2013-07-12 08:43:00,55.0,43.0,29.78,WSW,249,0.0,1.0,64,0.00,,,0.00,362.000000,,2013-07-12 14:43:00,
2013-07-12 08:53:00,57.0,44.0,29.78,WNW,296,0.0,3.0,62,0.00,,,0.00,399.000000,,2013-07-12 14:53:00,
2013-07-12 09:01:00,58.0,43.0,29.78,WNW,296,0.0,1.0,57,0.00,,,0.00,439.000000,,2013-07-12 15:01:00,
2013-07-12 09:11:00,58.0,43.0,29.78,WNW,296,0.0,1.0,57,0.00,,,0.00,439.000000,,2013-07-12 15:11:00,
2013-07-12 09:22:00,61.0,43.0,29.78,West,259,0.0,1.0,52,0.00,,,0.00,480.000000,,2013-07-12 15:22:00,
2013-07-12 09:33:00,61.0,43.0,29.78,West,259,0.0,1.0,52,0.00,,,0.00,480.000000,,2013-07-12 15:33:00,
2013-07-12 09:43:00,63.0,43.0,29.77,WSW,256,0.0,1.0,48,0.00,,,0.00,480.000000,,2013-07-12 15:43:00,
2013-07-12 09:53:00,64.0,44.0,29.77,East,90,0.0,1.0,49,0.00,,,0.00,563.000000,,2013-07-12 15:53:00,
2013-07-12 10:01:00,65.0,46.0,29.76,SE,135,2.0,7.0,51,0.00,,,0.00,522.000000,,2013-07-12 16:01:00,
2013-07-12 10:11:00,65.0,46.0,29.76,SE,135,2.0,7.0,51,0.00,,,0.00,522.000000,,2013-07-12 16:11:00,
2013-07-12 10:22:00,66.0,46.0,29.76,SE,142,1.0,7.0,49,0.00,,,0.00,664.000000,,2013-07-12 16:22:00,
2013-07-12 10:42:00,67.0,46.0,29.76,East,97,3.0,7.0,47,0.00,,,0.00,768.000000,,2013-07-12 16:42:00,
2013-07-12 10:58:00,69.0,47.0,29.75,South,169,0.0,5.0,45,0.00,,,0.00,397.000000,,2013-07-12 16:58:00,
2013-07-12 11:12:00,70.0,48.0,29.75,South,180,0.0,6.0,45,0.00,,,0.00,487.000000,,2013-07-12 17:12:00,
2013-07-12 11:33:00,71.0,45.0,29.75,SSE,153,0.0,4.0,40,0.00,,,0.00,679.000000,,2013-07-12 17:33:00,
2013-07-12 11:55:00,73.0,44.0,29.74,SSE,167,2.0,6.0,35,0.00,,,0.00,875.000000,,2013-07-12 17:55:00,
2013-07-12 12:01:00,73.0,39.0,29.74,SSE,161,2.0,6.0,29,0.00,,,0.00,837.000000,,2013-07-12 18:01:00,
2013-07-12 12:12:00,73.0,39.0,29.74,SSE,161,2.0,6.0,29,0.00,,,0.00,837.000000,,2013-07-12 18:12:00,
2013-07-12 12:23:00,74.0,37.0,29.74,ESE,109,0.0,7.0,26,0.00,,,0.00,775.000000,,2013-07-12 18:23:00,
2013-07-12 12:32:00,75.0,40.0,29.74,SE,136,4.0,9.0,28,0.00,,,0.00,937.000000,,2013-07-12 18:32:00,
2013-07-12 12:44:00,75.0,40.0,29.74,SE,136,4.0,9.0,28,0.00,,,0.00,937.000000,,2013-07-12 18:44:00,
2013-07-12 12:56:00,74.0,40.0,29.74,SSE,149,3.0,8.0,29,0.00,,,0.00,881.000000,,2013-07-12 18:56:00,
2013-07-12 13:11:00,74.0,41.0,29.73,SE,126,2.0,10.0,31,0.00,,,0.00,626.000000,,2013-07-12 19:11:00,
2013-07-12 13:32:00,74.0,38.0,29.73,ESE,123,2.0,9.0,27,0.00,,,0.00,707.000000,,2013-07-12 19:32:00,
2013-07-12 13:44:00,75.0,40.0,29.73,ENE,74,4.0,9.0,28,0.00,,,0.00,,,2013-07-12 19:44:00,
2013-07-12 13:57:00,76.0,38.0,29.72,East,93,4.0,12.0,25,0.00,,,0.00,,,2013-07-12 19:57:00,
2013-07-12 14:11:00,76.0,37.0,29.72,SE,131,7.0,11.0,24,0.00,,,0.00,378.000000,,2013-07-12 20:11:00,
2013-07-12 14:22:00,75.0,37.0,29.72,SE,132,7.0,12.0,25,0.00,,,0.00,455.000000,,2013-07-12 20:22:00,
2013-07-12 14:32:00,75.0,37.0,29.72,SE,132,7.0,12.0,25,0.00,,,0.00,455.000000,,2013-07-12 20:32:00,
2013-07-12 14:42:00,74.0,37.0,29.73,SE,138,2.0,9.0,26,0.00,,,0.00,294.000000,,2013-07-12 20:42:00,
2013-07-12 14:54:00,74.0,37.0,29.72,SE,138,5.0,11.0,26,0.00,,,0.00,610.000000,,2013-07-12 20:54:00,
2013-07-12 15:12:00,76.0,37.0,29.72,ENE,77,5.0,10.0,24,0.00,,,0.00,,,2013-07-12 21:12:00,
2013-07-12 15:23:00,78.0,38.0,29.72,East,86,2.0,10.0,24,0.00,,,0.00,914.000000,,2013-07-12 21:23:00,
2013-07-12 15:42:00,78.0,35.0,29.72,ESE,107,2.0,9.0,21,0.00,,,0.00,624.000000,,2013-07-12 21:42:00,
2013-07-12 15:56:00,78.0,37.0,29.72,East,82,4.0,10.0,23,0.00,,,0.00,664.000000,,2013-07-12 21:56:00,
2013-07-12 16:01:00,79.0,40.0,29.72,North,5,9.0,13.0,25,0.00,,,0.00,531.000000,,2013-07-12 22:01:00,
2013-07-12 16:12:00,79.0,40.0,29.72,North,5,9.0,13.0,25,0.00,,,0.00,531.000000,,2013-07-12 22:12:00,
2013-07-12 16:32:00,78.0,44.0,29.72,NNW,344,7.0,15.0,30,0.00,,,0.00,390.000000,,2013-07-12 22:32:00,
2013-07-12 16:43:00,76.0,39.0,29.72,NW,317,6.0,11.0,26,0.00,,,0.00,297.000000,,2013-07-12 22:43:00,
2013-07-12 16:54:00,75.0,40.0,29.72,North,11,6.0,11.0,28,0.00,,,0.00,287.000000,,2013-07-12 22:54:00,
2013-07-12 17:02:00,75.0,39.0,29.73,NNE,13,2.0,11.0,27,0.00,,,0.00,195.000000,,2013-07-12 23:02:00,
2013-07-12 17:11:00,75.0,39.0,29.73,NNE,13,2.0,11.0,27,0.00,,,0.00,195.000000,,2013-07-12 23:11:00,
2013-07-12 17:22:00,74.0,40.0,29.73,North,355,3.0,8.0,29,0.00,,,0.00,251.000000,,2013-07-12 23:22:00,
2013-07-12 17:32:00,74.0,39.0,29.73,NNE,13,3.0,9.0,28,0.00,,,0.00,279.000000,,2013-07-12 23:32:00,
2013-07-12 17:42:00,74.0,39.0,29.73,NNE,13,3.0,9.0,28,0.00,,,0.00,279.000000,,2013-07-12 23:42:00,
2013-07-12 18:02:00,74.0,41.0,29.72,NNE,25,4.0,9.0,30,0.00,,,0.00,171.000000,,2013-07-13 00:02:00,
2013-07-12 18:12:00,74.0,41.0,29.72,NNE,25,4.0,9.0,30,0.00,,,0.00,171.000000,,2013-07-13 00:12:00,
2013-07-12 18:43:00,73.0,41.0,29.72,NNE,31,3.0,7.0,32,0.00,,,0.00,557.000000,,2013-07-13 00:43:00,
2013-07-12 18:56:00,73.0,41.0,29.72,NNE,31,3.0,7.0,32,0.00,,,0.00,557.000000,,2013-07-13 00:56:00,
2013-07-12 19:22:00,77.0,35.0,29.72,NNW,332,3.0,11.0,22,0.00,,,0.00,454.000000,,2013-07-13 01:22:00,
2013-07-12 19:32:00,77.0,36.0,29.72,NW,310,1.0,6.0,23,0.00,,,0.00,156.000000,,2013-07-13 01:32:00,
2013-07-12 19:44:00,77.0,36.0,29.72,NW,310,1.0,6.0,23,0.00,,,0.00,156.000000,,2013-07-13 01:44:00,
2013-07-12 20:03:00,77.0,34.0,29.73,WNW,295,6.0,12.0,21,0.00,,,0.00,332.000000,,2013-07-13 02:03:00,
2013-07-12 20:12:00,77.0,39.0,29.73,NNW,348,3.0,8.0,26,0.00,,,0.00,183.000000,,2013-07-13 02:12:00,
2013-07-12 20:22:00,76.0,41.0,29.73,ENE,60,1.0,6.0,28,0.00,,,0.00,88.000000,,2013-07-13 02:22:00,
2013-07-12 20:32:00,76.0,41.0,29.73,ENE,60,1.0,6.0,28,0.00,,,0.00,88.000000,,2013-07-13 02:32:00,
2013-07-12 20:43:00,74.0,43.0,29.74,NE,47,1.0,4.0,33,0.00,,,0.00,107.000000,,2013-07-13 02:43:00,
2013-07-12 20:52:00,74.0,43.0,29.74,NE,47,1.0,4.0,33,0.00,,,0.00,107.000000,,2013-07-13 02:52:00,
2013-07-12 21:02:00,72.0,42.0,29.76,NW,319,1.0,5.0,34,0.00,,,0.00,25.000000,,2013-07-13 03:02:00,
2013-07-12 21:12:00,72.0,42.0,29.76,NW,319,1.0,5.0,34,0.00,,,0.00,25.000000,,2013-07-13 03:12:00,
2013-07-12 21:22:00,70.0,41.0,29.76,WNW,296,3.0,9.0,35,0.00,,,0.00,14.000000,,2013-07-13 03:22:00,
2013-07-12 21:33:00,69.0,40.0,29.77,NW,308,1.0,6.0,35,0.00,,,0.00,9.000000,,2013-07-13 03:33:00,
2013-07-12 21:56:00,69.0,39.0,29.78,WNW,303,0.0,5.0,33,0.00,,,0.00,0.000000,,2013-07-13 03:56:00,
2013-07-12 22:01:00,68.0,39.0,29.78,NW,304,0.0,2.0,34,0.00,,,0.00,0.000000,,2013-07-13 04:01:00,
2013-07-12 22:11:00,68.0,39.0,29.78,NW,304,0.0,2.0,34,0.00,,,0.00,0.000000,,2013-07-13 04:11:00,
2013-07-12 22:32:00,67.0,43.0,29.79,NW,319,0.0,4.0,41,0.00,,,0.00,0.000000,,2013-07-13 04:32:00,
2013-07-12 22:43:00,67.0,43.0,29.79,NW,319,0.0,4.0,41,0.00,,,0.00,0.000000,,2013-07-13 04:43:00,
2013-07-12 22:52:00,66.0,43.0,29.80,NW,325,0.0,1.0,44,0.00,,,0.00,0.000000,,2013-07-13 04:52:00,
2013-07-12 23:01:00,65.0,41.0,29.80,NW,325,0.0,1.0,42,0.00,,,0.00,0.000000,,2013-07-13 05:01:00,
2013-07-12 23:11:00,65.0,41.0,29.80,NW,325,0.0,1.0,42,0.00,,,0.00,0.000000,,2013-07-13 05:11:00,
2013-07-12 23:32:00,64.0,40.0,29.78,NE,53,0.0,4.0,41,0.00,,,0.00,0.000000,,2013-07-13 05:32:00,
2013-07-12 23:42:00,64.0,42.0,29.80,NNE,31,0.0,1.0,45,0.00,,,0.00,0.000000,,2013-07-13 05:42:00,
2013-07-12 23:52:00,63.0,42.0,29.80,NNE,31,0.0,1.0,46,0.00,,,0.00,0.000000,,2013-07-13 05:52:00,